Location: Unspecified
(0.0000°N, 0.0000°E)
Time: 05:48:11
(UTC+00:00)

S-56A Canister/Altair - Visible Passes

Search period start: 19 September 2014 00:00
Search period end: 29 September 2014 00:00
Orbit: 633 x 2503 km, 38.9° (Epoch: 17 September)

Date Brightness Start Highest point End Pass type
(mag) Time Alt. Az. Time Alt. Az. Time Alt. Az.
19 Sep 9.7 03:38:04 15° NNE 03:38:04 15° NNE 03:38:47 10° NE visible
19 Sep 11.6 18:16:26 10° WSW 18:24:40 17° SSW 18:32:59 10° S visible
26 Sep 11.4 21:03:08 10° S 21:04:25 11° S 21:04:25 11° S visible
27 Sep 11.3 20:30:50 10° S 20:33:52 11° SSE 20:33:52 11° SSE visible
28 Sep 11.3 19:59:23 10° SSE 20:00:33 10° SSE 20:01:42 10° SSE visible
28 Sep 11.4 21:59:20 10° SSW 22:00:48 13° SSW 22:00:48 13° SSW visible
